Temp
38 37 42 41 43 43 44 45 47 49 50 57 59 59 59 58 58 57 57 56 56 55
37 37 40 42 43 43 45 46 47 48 49 53 59 59 58 57 57 57 57 57 56 55
39 39 37 41 42 43 44 46 46 47 49 51 56 58 58 57 57 56 56 56 55 54
40 41 41 40 41 42 44 45 46 47 48 50 53 56 57 57 57 56 55 55 55 54
39 40 39 39 41 42 43 45 45 46 47 48 51 54 56 55 55 55 54 53 52 51
39 38 39 40 40 41 42 43 45 45 45 46 48 51 51 52 51 52 51 51 51 50
39 39 39 39 38 40 42 42 43 43 44 45 46 47 48 48 47 46 46 46 47 47
39 39 39 39 39 40 40 41 42 42 43 43 43 44 45 45 44 43 42 41 41 39
38 38 38 38 38 38 39 40 40 40 40 40 42 41 41 43 42 41 41 38 38 38
35 34 36 37 38 37 38 38 38 39 39 39 39 40 40 40 41 39 38 37 36 35
33 33 33 32 36 37 37 37 37 37 39 39 39 39 39 38 39 37 35 34 34 34
33 32 33 33 32 33 34 34 36 36 37 37 36 39 39 38 37 35 34 34 33 33
32 33 32 32 31 31 32 33 33 33 34 34 35 39 39 37 34 33 31 32 32 34
31 31 31 31 30 30 30 30 27 28 30 31 33 35 39 39 33 32 29 28 28 29
MSLP
1018.36 1018.15 1017.71 1017.38 1016.89 1016.65 1016.07 1015.68 1015.08 1014.06 1013.06 1012.80 1013.17 1013.81 1014.46 1015.19 1015.90 1016.47 1017.14 1017.81 1018.23 1018.71
1018.49 1018.18 1017.92 1017.62 1017.06 1016.89 1016.46 1015.85 1015.33 1014.09 1013.90 1012.80 1013.07 1013.72 1014.45 1015.17 1015.90 1016.48 1017.06 1017.45 1018.14 1018.66
1018.44 1018.18 1018.11 1017.77 1017.47 1017.26 1016.54 1016.15 1014.95 1014.53 1013.88 1013.30 1013.09 1013.73 1014.49 1015.19 1015.78 1016.40 1016.97 1017.49 1018.09 1018.55
1018.39 1018.39 1018.11 1017.88 1017.47 1017.16 1016.49 1015.95 1015.68 1014.97 1014.29 1013.62 1013.71 1014.10 1014.66 1015.30 1015.90 1016.47 1016.99 1017.59 1017.97 1018.52
1018.33 1018.44 1018.50 1018.47 1017.77 1017.63 1017.02 1016.60 1016.00 1015.56 1015.04 1014.73 1014.47 1014.59 1014.96 1015.54 1016.04 1016.54 1017.09 1017.52 1018.04 1018.54
1018.19 1018.34 1018.48 1018.58 1018.46 1017.84 1017.42 1016.95 1016.64 1016.25 1015.81 1015.45 1015.40 1015.36 1015.56 1015.94 1016.53 1017.01 1017.42 1017.93 1018.32 1018.88
1018.33 1018.30 1018.35 1018.36 1018.38 1018.20 1017.95 1017.45 1017.12 1016.80 1016.46 1016.44 1016.37 1016.41 1016.33 1016.63 1017.22 1017.55 1018.11 1018.65 1019.10 1019.68
1018.69 1018.56 1018.53 1018.42 1018.24 1018.11 1017.83 1017.78 1017.79 1017.50 1017.29 1017.08 1017.07 1017.46 1017.41 1017.54 1018.10 1018.47 1019.12 1019.74 1020.36 1020.62
1019.10 1018.93 1018.76 1018.84 1018.90 1018.66 1018.54 1018.42 1018.25 1018.18 1018.18 1018.50 1018.53 1018.37 1018.13 1018.56 1018.92 1019.43 1020.04 1020.74 1021.11 1021.29
1019.70 1019.58 1019.25 1019.00 1019.12 1019.31 1019.27 1019.32 1019.31 1019.35 1019.36 1019.40 1019.48 1018.99 1019.23 1019.43 1020.10 1020.26 1020.90 1021.18 1021.74 1022.38
1020.37 1020.25 1020.06 1019.77 1019.49 1019.59 1019.68 1019.83 1019.98 1020.07 1020.00 1019.99 1020.15 1020.00 1020.24 1020.45 1020.61 1021.35 1021.92 1022.17 1022.55 1022.62
1020.56 1020.72 1020.70 1020.60 1020.53 1020.40 1020.40 1020.33 1020.36 1020.44 1020.56 1020.66 1020.95 1021.06 1021.29 1021.38 1021.87 1022.20 1022.36 1022.56 1022.70 1022.81
1020.76 1020.87 1021.14 1021.35 1021.24 1021.25 1021.24 1021.19 1021.10 1021.03 1020.95 1020.81 1021.07 1021.17 1021.04 1021.25 1021.50 1022.16 1022.79 1023.01 1023.09 1022.89
1021.04 1021.19 1021.34 1021.54 1021.70 1021.80 1021.88 1021.99 1022.26 1022.37 1022.21 1022.11 1021.97 1021.82 1021.59 1021.49 1021.52 1021.90 1022.49 1022.70 1022.81 1022.72
Wind_Speed
4 4 4 5 6 4 6 6 8 7 9 6 11 11 10 7 6 7 7 8 5 2
4 5 6 7 6 5 6 7 9 8 9 7 12 11 10 6 7 8 8 7 6 4
3 4 4 5 6 7 7 8 8 8 8 7 7 9 8 6 6 7 5 4 6 4
3 4 4 4 5 6 7 8 7 8 7 7 6 6 8 6 7 7 6 5 6 5
3 3 4 4 6 5 6 6 7 6 6 5 6 6 7 7 6 7 7 6 6 6
4 4 4 4 4 6 6 7 6 6 6 6 5 6 7 7 6 6 7 6 7 6
4 4 4 4 4 4 5 6 7 7 7 7 6 5 7 8 8 8 7 6 6 4
3 3 4 5 6 6 8 7 7 7 8 10 10 6 6 8 7 8 9 8 7 6
3 3 4 5 5 6 7 8 8 9 10 9 8 12 14 9 8 8 7 7 6 7
3 4 4 5 6 6 7 6 8 8 8 9 8 16 15 13 7 8 7 6 6 4
2 3 3 3 5 5 4 6 5 6 6 7 8 14 13 11 8 8 6 6 4 5
3 3 2 4 4 4 3 4 4 4 5 7 6 11 9 7 5 6 6 5 5 5
2 2 2 1 3 3 3 3 3 4 4 5 6 7 9 7 4 6 3 3 4 5
4 3 3 2 3 3 4 4 5 4 5 4 4 3 5 6 4 4 3 3 1 1
Wind_Direction
360 345 336 340 337 349 329 321 318 322 348 230 151 150 144 152 157 156 170 176 170 155
16 349 349 339 335 337 318 327 312 1 317 32 149 142 144 147 156 163 168 173 154 141
10 356 351 340 347 334 324 326 351 349 340 10 105 128 134 144 149 148 140 135 144 129
7 357 352 350 338 341 340 349 344 342 353 18 59 94 115 126 143 139 137 144 142 133
35 19 21 13 339 349 338 342 347 357 10 15 46 78 118 115 118 132 136 127 115 127
26 30 24 24 13 352 359 352 4 8 18 27 34 72 78 98 104 106 109 127 129 133
34 13 22 19 28 25 12 16 13 15 21 36 46 51 87 93 105 92 80 70 73 95
50 51 30 27 34 26 30 26 28 30 30 39 42 31 60 78 76 87 86 67 57 46
53 60 59 52 47 57 47 34 36 38 44 48 46 55 64 77 80 68 74 83 69 51
50 47 60 68 68 56 60 53 56 55 59 58 53 55 62 66 79 80 75 72 81 86
68 53 25 39 82 85 76 68 54 49 53 68 54 62 72 78 78 76 77 79 84 76
143 105 48 66 49 36 85 94 99 108 93 85 68 67 75 86 95 91 75 64 59 76
168 128 102 75 74 23 16 53 60 79 75 103 109 109 110 109 101 96 91 87 95 93
165 152 122 81 26 40 47 50 31 23 22 26 44 70 113 144 136 143 143 149 146 206